When you browse on this site, cookies collect data to enhance your experience and personalize the content and advertising you see.
Visit our Privacy Policy to learn more. By continuing to use the site, you agree to this use of cookies and data.
  • In Lithuania
  • List of Countries
  • For 7 days
  • Water Temperature
  • Satellite Maps
  • Weather Map
  • Weather Widgets
  • user-avatar
    Login

    Hourly Weather Kreczkow

    Today, 15 February, Friday

    Time Temperature Precipitation Wind Pressure Humidity
    00:00 +4°C° 0 mm 2 mps 762 mmHg 89%
    01:00 +4°C° 0 mm 1 mps 762 mmHg 90%
    02:00 +4°C° 0 mm 1 mps 762 mmHg 89%
    03:00 +4°C° 0 mm 1 mps 762 mmHg 89%
    04:00 +2°C° 0 mm 2 mps 762 mmHg 89%
    05:00 +2°C° 0 mm 2 mps 762 mmHg 88%
    06:00 +2°C° 0 mm 2 mps 762 mmHg 87%
    07:00 +1°C° 0 mm 2 mps 762 mmHg 86%
    08:00 +3°C° 0 mm 2 mps 762 mmHg 80%
    09:00 +4°C° 0 mm 2 mps 762 mmHg 74%
    10:00 +5°C° 0 mm 2 mps 762 mmHg 68%
    11:00 +7°C° 0 mm 2 mps 762 mmHg 64%
    12:00 +8°C° 0 mm 2 mps 762 mmHg 61%
    13:00 +9°C° 0 mm 3 mps 762 mmHg 58%
    14:00 +9°C° 0 mm 3 mps 761 mmHg 60%
    15:00 +8°C° 0 mm 2 mps 761 mmHg 62%
    16:00 +8°C° 0 mm 2 mps 761 mmHg 64%
    17:00 +7°C° 0 mm 2 mps 761 mmHg 68%
    18:00 +6°C° 0 mm 2 mps 761 mmHg 72%
    19:00 +5°C° 0 mm 1 mps 761 mmHg 76%
    20:00 +5°C° 0 mm 1 mps 760 mmHg 76%
    21:00 +5°C° 0 mm 1 mps 760 mmHg 75%
    22:00 +4°C° 0 mm 1 mps 760 mmHg 75%
    23:00 +4°C° 0 mm 1 mps 760 mmHg 73%

    Tomorrow, 16 February, Saturday

    Time Temperature Precipitation Wind Pressure Humidity
    00:00 +4°C° 0 mm 1 mps 760 mmHg 71%
    01:00 +4°C° 0 mm 1 mps 760 mmHg 70%
    02:00 +4°C° 0 mm 1 mps 760 mmHg 67%
    03:00 +3°C° 0 mm 1 mps 760 mmHg 65%
    04:00 +3°C° 0 mm 1 mps 760 mmHg 63%
    05:00 +3°C° 0 mm 1 mps 759 mmHg 61%
    06:00 +3°C° 0 mm 1 mps 759 mmHg 59%
    07:00 +3°C° 0 mm 1 mps 759 mmHg 57%
    08:00 +5°C° 0 mm 1 mps 759 mmHg 53%
    09:00 +6°C° 0 mm 2 mps 759 mmHg 50%
    10:00 +8°C° 0 mm 2 mps 759 mmHg 47%
    11:00 +9°C° 0 mm 2 mps 759 mmHg 45%
    12:00 +12°C° 0 mm 2 mps 758 mmHg 43%
    13:00 +13°C° 0 mm 2 mps 758 mmHg 41%
    14:00 +13°C° 0 mm 2 mps 758 mmHg 46%
    15:00 +12°C° 0 mm 2 mps 758 mmHg 50%
    16:00 +12°C° 0 mm 2 mps 757 mmHg 55%
    17:00 +9°C° 0 mm 2 mps 757 mmHg 56%
    18:00 +7°C° 0 mm 3 mps 757 mmHg 58%
    19:00 +5°C° 0 mm 3 mps 757 mmHg 60%
    20:00 +5°C° 0 mm 3 mps 757 mmHg 58%
    21:00 +4°C° 0 mm 3 mps 757 mmHg 56%
    22:00 +4°C° 0 mm 3 mps 757 mmHg 54%
    23:00 +4°C° 0 mm 3 mps 757 mmHg 56%

    Day after tomorrow, 17 February, Sunday

    Time Temperature Precipitation Wind Pressure Humidity
    00:00 +4°C° 0 mm 2 mps 757 mmHg 57%
    01:00 +4°C° 0 mm 2 mps 757 mmHg 59%
    02:00 +4°C° 0 mm 2 mps 757 mmHg 60%
    03:00 +3°C° 0 mm 2 mps 756 mmHg 61%
    04:00 +3°C° 0 mm 2 mps 756 mmHg 62%
    05:00 +3°C° 0 mm 2 mps 756 mmHg 63%
    06:00 +4°C° 0 mm 1 mps 756 mmHg 63%
    07:00 +3°C° 0 mm 1 mps 756 mmHg 64%
    08:00 +5°C° 0 mm 1 mps 756 mmHg 60%
    09:00 +7°C° 0 mm 1 mps 756 mmHg 56%
    10:00 +8°C° 0 mm 1 mps 757 mmHg 53%
    11:00 +10°C° 0 mm 1 mps 756 mmHg 50%
    12:00 +11°C° 0 mm 1 mps 756 mmHg 47%
    13:00 +12°C° 0 mm 1 mps 756 mmHg 43%
    14:00 +12°C° 0 mm 1 mps 756 mmHg 47%
    15:00 +12°C° 0 mm 1 mps 755 mmHg 51%
    16:00 +11°C° 0 mm 1 mps 755 mmHg 55%
    17:00 +10°C° 0 mm 1 mps 755 mmHg 59%
    18:00 +9°C° 0 mm 1 mps 755 mmHg 63%
    19:00 +7°C° 0 mm 1 mps 755 mmHg 67%
    20:00 +7°C° 0 mm 1 mps 755 mmHg 67%
    21:00 +6°C° 0 mm 1 mps 755 mmHg 67%
    22:00 +6°C° 0 mm 1 mps 755 mmHg 68%
    23:00 +5°C° 0 mm 1 mps 755 mmHg 67%

    18 February, Monday

    Time Temperature Precipitation Wind Pressure Humidity
    00:00 +5°C° 0 mm 1 mps 755 mmHg 66%
    01:00 +5°C° 0 mm 1 mps 755 mmHg 65%
    02:00 +4°C° 0 mm 1 mps 755 mmHg 65%
    03:00 +4°C° 0 mm 1 mps 755 mmHg 65%
    04:00 +4°C° 0 mm 1 mps 754 mmHg 65%
    05:00 +4°C° 0 mm 1 mps 754 mmHg 65%
    06:00 +3°C° 0 mm 1 mps 754 mmHg 66%
    07:00 +3°C° 0 mm 1 mps 754 mmHg 67%
    08:00 +5°C° 0 mm 1 mps 754 mmHg 63%
    09:00 +7°C° 0 mm 1 mps 754 mmHg 59%
    10:00 +8°C° 0 mm 1 mps 754 mmHg 55%
    11:00 +10°C° 0 mm 1 mps 754 mmHg 51%
    12:00 +10°C° 0 mm 2 mps 754 mmHg 47%
    13:00 +13°C° 0 mm 2 mps 754 mmHg 43%
    14:00 +12°C° 0 mm 2 mps 753 mmHg 47%
    15:00 +12°C° 0 mm 1 mps 753 mmHg 50%
    16:00 +12°C° 0 mm 1 mps 753 mmHg 53%
    17:00 +9°C° 0 mm 2 mps 753 mmHg 57%
    18:00 +8°C° 0 mm 2 mps 753 mmHg 62%
    19:00 +6°C° 0 mm 2 mps 753 mmHg 66%
    20:00 +6°C° 0 mm 2 mps 753 mmHg 68%
    21:00 +5°C° 0 mm 2 mps 753 mmHg 70%
    22:00 +5°C° 0 mm 2 mps 753 mmHg 71%
    23:00 +3°C° 0 mm 3 mps 753 mmHg 73%

    19 February, Tuesday

    Time Temperature Precipitation Wind Pressure Humidity
    00:00 +3°C° 0 mm 3 mps 752 mmHg 75%
    01:00 +3°C° 0 mm 3 mps 752 mmHg 77%
    02:00 +2°C° 0 mm 3 mps 752 mmHg 77%
    03:00 +2°C° 0 mm 3 mps 752 mmHg 78%
    04:00 +2°C° 0 mm 3 mps 752 mmHg 79%
    05:00 +2°C° 0 mm 3 mps 751 mmHg 80%
    06:00 +1°C° 0 mm 3 mps 751 mmHg 80%
    07:00 +1°C° 0 mm 3 mps 751 mmHg 81%
    08:00 +3°C° 0 mm 3 mps 751 mmHg 75%
    09:00 +5°C° 0 mm 3 mps 751 mmHg 69%
    10:00 +8°C° 0 mm 3 mps 751 mmHg 63%
    11:00 +9°C° 0 mm 3 mps 751 mmHg 60%
    12:00 +10°C° 0 mm 4 mps 751 mmHg 56%
    13:00 +11°C° 0 mm 4 mps 750 mmHg 53%
    14:00 +11°C° 0 mm 4 mps 750 mmHg 55%
    15:00 +10°C° 0 mm 4 mps 750 mmHg 56%
    16:00 +9°C° 0 mm 5 mps 750 mmHg 57%
    17:00 +8°C° 0 mm 4 mps 750 mmHg 61%
    18:00 +7°C° 0 mm 4 mps 750 mmHg 65%
    19:00 +5°C° 0 mm 4 mps 751 mmHg 69%
    20:00 +6°C° 0.1 mm 4 mps 751 mmHg 73%
    21:00 +6°C° 0.1 mm 4 mps 751 mmHg 76%
    22:00 +6°C° 0.1 mm 4 mps 752 mmHg 79%
    23:00 +5°C° 0 mm 4 mps 752 mmHg 83%

    20 February, Wednesday

    Time Temperature Precipitation Wind Pressure Humidity
    00:00 +4°C° 0 mm 4 mps 752 mmHg 87%
    01:00 +4°C° 0 mm 4 mps 752 mmHg 91%
    02:00 +3°C° 0 mm 4 mps 753 mmHg 90%
    03:00 +3°C° 0 mm 4 mps 753 mmHg 90%
    04:00 +2°C° 0 mm 3 mps 753 mmHg 89%
    05:00 +2°C° 0 mm 3 mps 753 mmHg 88%
    06:00 +2°C° 0 mm 3 mps 753 mmHg 88%
    07:00 0°C° 0 mm 4 mps 753 mmHg 88%
    08:00 +3°C° 0 mm 4 mps 754 mmHg 81%
    09:00 +3°C° 0 mm 5 mps 754 mmHg 74%
    10:00 +6°C° 0 mm 5 mps 754 mmHg 68%
    11:00 +7°C° 0 mm 5 mps 754 mmHg 63%
    12:00 +7°C° 0 mm 5 mps 754 mmHg 58%
    13:00 +8°C° 0 mm 6 mps 754 mmHg 53%
    14:00 +8°C° 0 mm 5 mps 754 mmHg 55%
    15:00 +8°C° 0 mm 4 mps 754 mmHg 57%
    16:00 +8°C° 0 mm 4 mps 754 mmHg 59%
    17:00 +8°C° 0 mm 3 mps 754 mmHg 64%
    18:00 +7°C° 0 mm 3 mps 754 mmHg 70%
    19:00 +4°C° 0 mm 3 mps 754 mmHg 76%
    20:00 +4°C° 0 mm 3 mps 755 mmHg 76%
    21:00 +4°C° 0 mm 3 mps 755 mmHg 77%
    22:00 +4°C° 0 mm 3 mps 755 mmHg 78%
    23:00 +4°C° 0 mm 3 mps 755 mmHg 79%
    Show more